Time,TemperatureF,DewpointF,PressureIn,WindDirection,WindDirectionDegrees,WindSpeedMPH,WindSpeedGustMPH,Humidity,HourlyPrecipIn,Conditions,Clouds,dailyrainin,SoftwareType,DateUTC
2013-11-02 00:00:00,43.8,37.1,29.06,WNW,293,0.0,0.0,77,0.00,,,0.00,WUHU216HW,2013-11-02 05:00:00,
2013-11-02 00:05:00,43.7,36.9,29.06,WNW,293,0.0,0.0,77,0.00,,,0.00,WUHU216HW,2013-11-02 05:05:00,
2013-11-02 00:10:00,43.7,37.2,29.06,WNW,293,0.0,0.0,78,0.00,,,0.00,WUHU216HW,2013-11-02 05:10:00,
2013-11-02 00:15:00,43.5,37.0,29.06,WSW,248,0.0,0.0,78,0.00,,,0.00,WUHU216HW,2013-11-02 05:15:00,
2013-11-02 00:19:00,43.5,37.0,29.06,WNW,293,0.0,0.0,78,0.00,,,0.00,WUHU216HW,2013-11-02 05:19:00,
2013-11-02 00:24:00,43.3,36.9,29.06,WNW,293,0.0,0.0,78,0.00,,,0.00,WUHU216HW,2013-11-02 05:24:00,
2013-11-02 00:29:00,43.3,36.9,29.06,WNW,293,0.0,0.0,78,0.00,,,0.00,WUHU216HW,2013-11-02 05:29:00,
2013-11-02 00:34:00,43.3,36.9,29.05,WNW,293,0.0,0.0,78,0.00,,,0.00,WUHU216HW,2013-11-02 05:34:00,
2013-11-02 00:39:00,43.3,36.9,29.06,WNW,293,0.0,0.0,78,0.00,,,0.00,WUHU216HW,2013-11-02 05:39:00,
2013-11-02 00:44:00,43.7,37.2,29.06,WNW,293,0.0,0.0,78,0.00,,,0.00,WUHU216HW,2013-11-02 05:44:00,
2013-11-02 00:49:00,43.7,37.2,29.06,WNW,293,0.0,0.0,78,0.00,,,0.00,WUHU216HW,2013-11-02 05:49:00,
2013-11-02 00:55:00,43.7,37.2,29.06,WNW,293,0.0,0.0,78,0.00,,,0.00,WUHU216HW,2013-11-02 05:55:00,
2013-11-02 01:00:00,43.8,37.1,29.07,NW,315,0.0,0.0,77,0.00,,,0.00,WUHU216HW,2013-11-02 06:00:00,
2013-11-02 01:05:00,43.8,37.1,29.07,NW,315,0.0,0.0,77,0.00,,,0.00,WUHU216HW,2013-11-02 06:05:00,
2013-11-02 01:10:00,43.7,36.9,29.07,West,270,5.8,5.8,77,0.00,,,0.00,WUHU216HW,2013-11-02 06:10:00,
2013-11-02 01:15:00,43.8,36.9,29.07,NNW,338,5.8,5.8,77,0.00,,,0.00,WUHU216HW,2013-11-02 06:15:00,
2013-11-02 01:20:00,43.8,37.1,29.07,WNW,293,0.0,5.8,77,0.00,,,0.00,WUHU216HW,2013-11-02 06:20:00,
2013-11-02 01:25:00,43.5,36.7,29.07,WNW,293,0.0,5.8,77,0.00,,,0.00,WUHU216HW,2013-11-02 06:25:00,
2013-11-02 01:30:00,43.3,36.5,29.07,NW,315,0.0,6.7,77,0.00,,,0.00,WUHU216HW,2013-11-02 06:30:00,
2013-11-02 01:35:00,43.1,36.7,29.08,NW,315,0.0,6.7,78,0.00,,,0.00,WUHU216HW,2013-11-02 06:35:00,
2013-11-02 01:40:00,43.1,36.7,29.08,NW,315,0.0,0.0,78,0.00,,,0.00,WUHU216HW,2013-11-02 06:40:00,
2013-11-02 01:45:00,42.9,36.5,29.07,West,270,5.5,5.5,78,0.00,,,0.00,WUHU216HW,2013-11-02 06:45:00,
2013-11-02 01:50:00,42.9,36.5,29.08,NNW,338,0.0,5.5,78,0.00,,,0.00,WUHU216HW,2013-11-02 06:50:00,
2013-11-02 01:55:00,42.9,36.5,29.08,NNW,338,0.0,5.5,78,0.00,,,0.00,WUHU216HW,2013-11-02 06:55:00,
2013-11-02 02:00:00,42.6,36.3,29.08,WNW,293,0.0,0.0,78,0.00,,,0.00,WUHU216HW,2013-11-02 07:00:00,
2013-11-02 02:05:00,42.6,36.2,29.08,West,270,4.6,4.6,78,0.00,,,0.00,WUHU216HW,2013-11-02 07:05:00,
2013-11-02 02:10:00,42.8,36.3,29.07,West,270,4.6,4.6,78,0.00,,,0.00,WUHU216HW,2013-11-02 07:10:00,
2013-11-02 02:15:00,42.6,36.2,29.07,WNW,293,4.2,4.6,78,0.00,,,0.00,WUHU216HW,2013-11-02 07:15:00,
2013-11-02 02:20:00,42.6,36.5,29.07,WNW,293,0.0,4.2,79,0.00,,,0.00,WUHU216HW,2013-11-02 07:20:00,
2013-11-02 02:25:00,42.0,35.9,29.08,WNW,293,0.0,4.2,79,0.00,,,0.00,WUHU216HW,2013-11-02 07:25:00,
2013-11-02 02:30:00,41.7,35.6,29.08,WNW,293,0.0,0.0,79,0.00,,,0.00,WUHU216HW,2013-11-02 07:30:00,
2013-11-02 02:35:00,41.3,35.2,29.08,WNW,293,0.0,0.0,79,0.00,,,0.00,WUHU216HW,2013-11-02 07:35:00,
2013-11-02 02:40:00,41.1,35.4,29.08,WNW,293,0.0,0.0,80,0.00,,,0.00,WUHU216HW,2013-11-02 07:40:00,
2013-11-02 02:45:00,40.8,35.0,29.08,WNW,293,0.0,0.0,80,0.00,,,0.00,WUHU216HW,2013-11-02 07:45:00,
2013-11-02 02:50:00,40.6,34.9,29.08,WNW,293,0.0,0.0,80,0.00,,,0.00,WUHU216HW,2013-11-02 07:50:00,
2013-11-02 02:55:00,40.4,35.0,29.08,WNW,293,0.0,0.0,81,0.00,,,0.00,WUHU216HW,2013-11-02 07:55:00,
2013-11-02 03:01:00,40.2,34.8,29.08,WNW,293,0.0,0.0,81,0.00,,,0.00,WUHU216HW,2013-11-02 08:01:00,
2013-11-02 03:06:00,40.2,34.8,29.08,WNW,293,0.0,0.0,81,0.00,,,0.00,WUHU216HW,2013-11-02 08:06:00,
2013-11-02 03:11:00,40.2,35.1,29.08,WNW,293,0.0,0.0,82,0.00,,,0.00,WUHU216HW,2013-11-02 08:11:00,
2013-11-02 03:16:00,40.2,35.1,29.09,NW,315,0.0,0.0,82,0.00,,,0.00,WUHU216HW,2013-11-02 08:16:00,
2013-11-02 03:21:00,40.2,35.1,29.08,NW,315,0.0,0.0,82,0.00,,,0.00,WUHU216HW,2013-11-02 08:21:00,
2013-11-02 03:26:00,40.2,35.1,29.09,WSW,248,0.0,0.0,82,0.00,,,0.00,WUHU216HW,2013-11-02 08:26:00,
2013-11-02 03:31:00,40.2,35.1,29.09,WSW,248,0.0,0.0,82,0.00,,,0.00,WUHU216HW,2013-11-02 08:31:00,
2013-11-02 03:36:00,40.1,35.0,29.09,WSW,248,0.0,0.0,82,0.00,,,0.00,WUHU216HW,2013-11-02 08:36:00,
2013-11-02 03:41:00,39.9,34.8,29.09,WSW,248,0.0,0.0,82,0.00,,,0.00,WUHU216HW,2013-11-02 08:41:00,
2013-11-02 03:47:00,39.9,35.1,29.09,WSW,248,0.0,0.0,83,0.00,,,0.00,WUHU216HW,2013-11-02 08:47:00,
2013-11-02 03:52:00,39.9,35.1,29.09,WNW,293,0.0,0.0,83,0.00,,,0.00,WUHU216HW,2013-11-02 08:52:00,
2013-11-02 03:57:00,40.2,35.4,29.09,NW,315,0.0,0.0,83,0.00,,,0.00,WUHU216HW,2013-11-02 08:57:00,
2013-11-02 04:02:00,40.2,35.1,29.09,NNW,338,0.0,0.0,82,0.00,,,0.00,WUHU216HW,2013-11-02 09:02:00,
2013-11-02 04:07:00,40.2,35.1,29.09,NW,315,0.0,0.0,82,0.00,,,0.00,WUHU216HW,2013-11-02 09:07:00,
2013-11-02 04:12:00,40.2,35.1,29.09,WNW,293,0.0,0.0,82,0.00,,,0.00,WUHU216HW,2013-11-02 09:12:00,
2013-11-02 04:17:00,40.4,35.3,29.10,WNW,293,2.6,5.1,82,0.00,,,0.00,WUHU216HW,2013-11-02 09:17:00,
2013-11-02 04:22:00,40.6,35.5,29.10,WNW,293,2.6,5.1,82,0.00,,,0.00,WUHU216HW,2013-11-02 09:22:00,
2013-11-02 04:28:00,40.6,35.5,29.10,NW,315,0.0,2.6,82,0.00,,,0.00,WUHU216HW,2013-11-02 09:28:00,
2013-11-02 04:33:00,40.6,35.5,29.10,NW,315,0.0,4.2,82,0.00,,,0.00,WUHU216HW,2013-11-02 09:33:00,
2013-11-02 04:38:00,40.6,35.5,29.10,WSW,248,0.0,4.2,82,0.00,,,0.00,WUHU216HW,2013-11-02 09:38:00,
2013-11-02 04:43:00,40.6,35.5,29.11,NW,315,3.8,3.8,82,0.00,,,0.00,WUHU216HW,2013-11-02 09:43:00,
2013-11-02 04:48:00,40.4,35.3,29.12,NW,315,0.0,3.8,82,0.00,,,0.00,WUHU216HW,2013-11-02 09:48:00,
2013-11-02 04:53:00,40.4,35.3,29.12,NW,315,0.0,3.8,82,0.00,,,0.00,WUHU216HW,2013-11-02 09:53:00,
2013-11-02 04:58:00,40.6,35.5,29.11,NW,315,6.4,6.7,82,0.00,,,0.00,WUHU216HW,2013-11-02 09:58:00,
2013-11-02 05:03:00,40.6,35.5,29.12,WNW,293,0.0,6.7,82,0.00,,,0.00,WUHU216HW,2013-11-02 10:03:00,
2013-11-02 05:08:00,40.6,35.5,29.12,WNW,293,0.0,6.4,82,0.00,,,0.00,WUHU216HW,2013-11-02 10:08:00,
2013-11-02 05:13:00,40.6,35.5,29.12,NW,315,0.0,0.0,82,0.00,,,0.00,WUHU216HW,2013-11-02 10:13:00,
2013-11-02 05:19:00,40.6,35.5,29.12,North,0,0.0,0.0,82,0.00,,,0.00,WUHU216HW,2013-11-02 10:19:00,
2013-11-02 05:24:00,40.6,35.2,29.12,West,270,0.0,0.0,81,0.00,,,0.00,WUHU216HW,2013-11-02 10:24:00,
2013-11-02 05:29:00,40.4,35.0,29.13,West,270,0.0,0.0,81,0.00,,,0.00,WUHU216HW,2013-11-02 10:29:00,
2013-11-02 05:34:00,40.2,34.8,29.13,NW,315,0.0,0.0,81,0.00,,,0.00,WUHU216HW,2013-11-02 10:34:00,
2013-11-02 05:39:00,40.2,35.1,29.13,NW,315,0.0,0.0,82,0.00,,,0.00,WUHU216HW,2013-11-02 10:39:00,
2013-11-02 05:44:00,40.2,35.1,29.14,NW,315,0.0,0.0,82,0.00,,,0.00,WUHU216HW,2013-11-02 10:44:00,
2013-11-02 05:49:00,40.2,35.1,29.14,NW,315,4.4,4.4,82,0.00,,,0.00,WUHU216HW,2013-11-02 10:49:00,
2013-11-02 05:54:00,40.2,35.1,29.14,NW,315,4.4,4.4,82,0.00,,,0.00,WUHU216HW,2013-11-02 10:54:00,
2013-11-02 06:00:00,40.2,35.1,29.14,WNW,293,0.0,4.4,82,0.00,,,0.00,WUHU216HW,2013-11-02 11:00:00,
2013-11-02 06:05:00,40.2,35.1,29.15,WNW,293,0.0,4.4,82,0.00,,,0.00,WUHU216HW,2013-11-02 11:05:00,
2013-11-02 06:10:00,40.2,35.1,29.15,NW,315,5.3,5.3,82,0.00,,,0.00,WUHU216HW,2013-11-02 11:10:00,
2013-11-02 06:15:00,40.1,35.0,29.15,NW,315,8.0,8.0,82,0.00,,,0.00,WUHU216HW,2013-11-02 11:15:00,
2013-11-02 06:20:00,40.2,35.1,29.15,NNW,338,2.9,8.0,82,0.00,,,0.00,WUHU216HW,2013-11-02 11:20:00,
2013-11-02 06:25:00,40.2,35.1,29.15,NNW,338,0.0,8.0,82,0.00,,,0.00,WUHU216HW,2013-11-02 11:25:00,
2013-11-02 06:30:00,40.1,35.0,29.15,WNW,293,0.0,6.9,82,0.00,,,0.00,WUHU216HW,2013-11-02 11:30:00,
2013-11-02 06:35:00,39.9,34.8,29.15,WNW,293,0.0,6.9,82,0.00,,,0.00,WUHU216HW,2013-11-02 11:35:00,
2013-11-02 06:40:00,39.7,34.6,29.15,WNW,293,0.0,0.0,82,0.00,,,0.00,WUHU216HW,2013-11-02 11:40:00,
2013-11-02 06:46:00,39.5,34.5,29.15,WNW,293,0.0,3.5,82,0.00,,,0.00,WUHU216HW,2013-11-02 11:46:00,
2013-11-02 06:51:00,39.3,34.3,29.15,WNW,293,0.0,3.5,82,0.00,,,0.00,WUHU216HW,2013-11-02 11:51:00,
2013-11-02 06:56:00,39.3,34.3,29.15,NW,315,3.5,3.5,82,0.00,,,0.00,WUHU216HW,2013-11-02 11:56:00,
2013-11-02 07:01:00,39.3,34.3,29.16,NW,315,0.0,3.5,82,0.00,,,0.00,WUHU216HW,2013-11-02 12:01:00,
2013-11-02 07:06:00,39.0,34.0,29.16,West,270,1.5,3.5,82,0.00,,,0.00,WUHU216HW,2013-11-02 12:06:00,
2013-11-02 07:11:00,39.2,34.4,29.16,West,270,0.0,1.5,83,0.00,,,0.00,WUHU216HW,2013-11-02 12:11:00,
2013-11-02 07:16:00,39.2,34.4,29.17,WNW,293,0.0,1.5,83,0.00,,,0.00,WUHU216HW,2013-11-02 12:16:00,
2013-11-02 07:21:00,39.0,34.3,29.17,WNW,293,0.0,0.0,83,0.00,,,0.00,WUHU216HW,2013-11-02 12:21:00,
2013-11-02 07:26:00,39.0,34.3,29.17,WNW,293,0.0,0.0,83,0.00,,,0.00,WUHU216HW,2013-11-02 12:26:00,
2013-11-02 07:32:00,38.8,34.1,29.17,WNW,293,0.0,0.0,83,0.00,,,0.00,WUHU216HW,2013-11-02 12:32:00,
2013-11-02 07:37:00,38.6,33.9,29.18,WNW,293,0.0,0.8,83,0.00,,,0.00,WUHU216HW,2013-11-02 12:37:00,
2013-11-02 07:42:00,38.4,33.7,29.18,West,270,0.0,0.8,83,0.00,,,0.00,WUHU216HW,2013-11-02 12:42:00,
2013-11-02 07:47:00,38.4,33.7,29.18,WNW,293,0.0,0.0,83,0.00,,,0.00,WUHU216HW,2013-11-02 12:47:00,
2013-11-02 07:52:00,38.3,33.5,29.18,WNW,293,0.0,0.0,83,0.00,,,0.00,WUHU216HW,2013-11-02 12:52:00,
2013-11-02 07:57:00,38.3,33.8,29.18,WNW,293,0.0,0.0,84,0.00,,,0.00,WUHU216HW,2013-11-02 12:57:00,
2013-11-02 08:02:00,38.1,33.6,29.19,WNW,293,5.1,5.1,84,0.00,,,0.00,WUHU216HW,2013-11-02 13:02:00,
2013-11-02 08:07:00,38.1,33.6,29.19,WNW,293,0.0,5.1,84,0.00,,,0.00,WUHU216HW,2013-11-02 13:07:00,
2013-11-02 08:13:00,38.1,33.6,29.19,WNW,293,0.0,0.0,84,0.00,,,0.00,WUHU216HW,2013-11-02 13:13:00,
2013-11-02 08:18:00,38.3,33.8,29.19,NW,315,0.0,0.0,84,0.00,,,0.00,WUHU216HW,2013-11-02 13:18:00,
2013-11-02 08:23:00,38.8,34.4,29.20,NNW,338,1.5,1.5,84,0.00,,,0.00,WUHU216HW,2013-11-02 13:23:00,
2013-11-02 08:28:00,39.0,34.5,29.20,NW,315,0.0,1.5,84,0.00,,,0.00,WUHU216HW,2013-11-02 13:28:00,
2013-11-02 08:33:00,39.5,35.0,29.20,WNW,293,0.0,1.5,84,0.00,,,0.00,WUHU216HW,2013-11-02 13:33:00,
2013-11-02 08:38:00,39.7,35.1,29.21,NW,315,0.0,2.9,83,0.00,,,0.00,WUHU216HW,2013-11-02 13:38:00,
2013-11-02 08:43:00,40.1,35.3,29.21,NW,315,0.0,2.9,83,0.00,,,0.00,WUHU216HW,2013-11-02 13:43:00,
2013-11-02 08:49:00,40.4,35.3,29.21,NW,315,0.0,0.0,82,0.00,,,0.00,WUHU216HW,2013-11-02 13:49:00,
2013-11-02 08:54:00,40.8,35.6,29.21,NW,315,0.0,7.8,82,0.00,,,0.00,WUHU216HW,2013-11-02 13:54:00,
2013-11-02 08:59:00,41.3,35.9,29.22,WNW,293,5.1,7.8,81,0.00,,,0.00,WUHU216HW,2013-11-02 13:59:00,
2013-11-02 09:04:00,41.9,36.1,29.22,NW,315,14.9,14.9,80,0.00,,,0.00,WUHU216HW,2013-11-02 14:04:00,
2013-11-02 09:09:00,42.0,35.9,29.22,West,270,5.5,14.9,79,0.00,,,0.00,WUHU216HW,2013-11-02 14:09:00,
2013-11-02 09:14:00,42.6,36.5,29.22,WNW,293,0.0,14.9,79,0.00,,,0.00,WUHU216HW,2013-11-02 14:14:00,
2013-11-02 09:19:00,42.9,36.5,29.22,NW,315,0.0,7.3,78,0.00,,,0.00,WUHU216HW,2013-11-02 14:19:00,
2013-11-02 09:24:00,43.1,36.4,29.23,NW,315,8.5,10.7,77,0.00,,,0.00,WUHU216HW,2013-11-02 14:24:00,
2013-11-02 09:29:00,43.5,36.4,29.24,WNW,293,4.6,10.7,76,0.00,,,0.00,WUHU216HW,2013-11-02 14:29:00,
2013-11-02 09:35:00,43.8,36.7,29.24,WNW,293,0.0,8.5,76,0.00,,,0.00,WUHU216HW,2013-11-02 14:35:00,
2013-11-02 09:40:00,44.4,37.1,29.24,NW,315,4.0,6.4,76,0.00,,,0.00,WUHU216HW,2013-11-02 14:40:00,
2013-11-02 09:45:00,44.7,37.3,29.24,West,270,0.0,6.0,75,0.00,,,0.00,WUHU216HW,2013-11-02 14:45:00,
2013-11-02 09:50:00,45.1,37.3,29.25,NW,315,5.1,6.0,74,0.00,,,0.00,WUHU216HW,2013-11-02 14:50:00,
2013-11-02 09:55:00,45.3,37.5,29.25,NW,315,3.5,5.1,73,0.00,,,0.00,WUHU216HW,2013-11-02 14:55:00,
2013-11-02 10:00:00,45.6,37.5,29.25,NNW,338,6.2,8.0,73,0.00,,,0.00,WUHU216HW,2013-11-02 15:00:00,
2013-11-02 10:05:00,46.0,37.5,29.25,NW,315,3.5,8.0,72,0.00,,,0.00,WUHU216HW,2013-11-02 15:05:00,
2013-11-02 10:10:00,46.2,37.8,29.25,NW,315,0.0,6.2,73,0.00,,,0.00,WUHU216HW,2013-11-02 15:10:00,
2013-11-02 10:15:00,46.2,37.7,29.25,NW,315,4.6,4.6,72,0.00,,,0.00,WUHU216HW,2013-11-02 15:15:00,
2013-11-02 10:21:00,46.5,38.0,29.25,NW,315,3.3,4.6,72,0.00,,,0.00,WUHU216HW,2013-11-02 15:21:00,
2013-11-02 10:26:00,46.9,38.0,29.25,NW,315,6.9,7.3,71,0.00,,,0.00,WUHU216HW,2013-11-02 15:26:00,
2013-11-02 10:31:00,47.1,38.2,29.25,WSW,248,5.3,10.9,71,0.00,,,0.00,WUHU216HW,2013-11-02 15:31:00,
2013-11-02 10:36:00,47.4,38.1,29.25,NW,315,7.8,10.9,70,0.00,,,0.00,WUHU216HW,2013-11-02 15:36:00,
2013-11-02 10:41:00,47.8,38.8,29.25,West,270,8.9,10.7,71,0.00,,,0.00,WUHU216HW,2013-11-02 15:41:00,
2013-11-02 10:46:00,48.0,38.6,29.25,West,270,6.0,10.7,70,0.00,,,0.00,WUHU216HW,2013-11-02 15:46:00,
2013-11-02 10:51:00,48.2,38.8,29.25,NW,315,5.5,8.9,70,0.00,,,0.00,WUHU216HW,2013-11-02 15:51:00,
2013-11-02 10:56:00,48.7,39.3,29.25,NW,315,9.3,9.3,70,0.00,,,0.00,WUHU216HW,2013-11-02 15:56:00,
2013-11-02 11:01:00,49.1,38.9,29.25,NW,315,10.0,10.0,68,0.00,,,0.00,WUHU216HW,2013-11-02 16:01:00,
2013-11-02 11:06:00,49.1,38.9,29.25,NW,315,7.1,10.0,68,0.00,,,0.00,WUHU216HW,2013-11-02 16:06:00,
2013-11-02 11:11:00,49.2,39.1,29.25,WNW,293,2.6,7.3,68,0.00,,,0.00,WUHU216HW,2013-11-02 16:11:00,
2013-11-02 11:16:00,49.6,39.4,29.25,NW,315,0.0,7.3,68,0.00,,,0.00,WUHU216HW,2013-11-02 16:16:00,
2013-11-02 11:21:00,50.1,39.6,29.25,NW,315,4.2,6.0,67,0.00,,,0.00,WUHU216HW,2013-11-02 16:21:00,
2013-11-02 11:26:00,50.5,39.9,29.25,WNW,293,0.0,6.0,67,0.00,,,0.00,WUHU216HW,2013-11-02 16:26:00,
2013-11-02 11:31:00,51.0,39.6,29.26,West,270,4.2,4.2,65,0.00,,,0.00,WUHU216HW,2013-11-02 16:31:00,
2013-11-02 11:36:00,51.2,40.2,29.25,NW,315,8.0,8.0,66,0.00,,,0.00,WUHU216HW,2013-11-02 16:36:00,
2013-11-02 11:41:00,51.6,39.3,29.26,NW,315,9.3,9.3,63,0.00,,,0.00,WUHU216HW,2013-11-02 16:41:00,
2013-11-02 11:46:00,51.0,38.8,29.26,North,0,8.5,9.3,63,0.00,,,0.00,WUHU216HW,2013-11-02 16:46:00,
2013-11-02 11:51:00,51.4,39.2,29.26,NW,315,2.9,10.2,63,0.00,,,0.00,WUHU216HW,2013-11-02 16:51:00,
2013-11-02 11:56:00,51.0,38.4,29.26,NW,315,2.9,10.2,62,0.00,,,0.00,WUHU216HW,2013-11-02 16:56:00,
2013-11-02 12:01:00,51.4,38.7,29.26,NNW,338,9.3,9.3,62,0.00,,,0.00,WUHU216HW,2013-11-02 17:01:00,
2013-11-02 12:06:00,52.1,39.4,29.26,NNW,338,9.3,9.3,62,0.00,,,0.00,WUHU216HW,2013-11-02 17:06:00,
2013-11-02 12:11:00,52.3,39.2,29.26,NW,315,2.9,9.3,61,0.00,,,0.00,WUHU216HW,2013-11-02 17:11:00,
2013-11-02 12:16:00,52.7,39.5,29.27,NW,315,3.3,9.3,61,0.00,,,0.00,WUHU216HW,2013-11-02 17:16:00,
2013-11-02 12:21:00,53.2,38.8,29.26,NW,315,11.4,11.4,58,0.00,,,0.00,WUHU216HW,2013-11-02 17:21:00,
2013-11-02 12:26:00,53.2,38.8,29.26,NW,315,8.7,11.4,58,0.00,,,0.00,WUHU216HW,2013-11-02 17:26:00,
2013-11-02 12:31:00,53.4,38.9,29.26,NW,315,8.5,11.4,58,0.00,,,0.00,WUHU216HW,2013-11-02 17:31:00,
2013-11-02 12:36:00,53.7,39.3,29.26,West,270,2.9,8.7,58,0.00,,,0.00,WUHU216HW,2013-11-02 17:36:00,
2013-11-02 12:41:00,54.1,38.7,29.26,West,270,7.8,7.8,56,0.00,,,0.00,WUHU216HW,2013-11-02 17:41:00,
2013-11-02 12:46:00,54.3,38.8,29.26,West,270,0.0,7.8,56,0.00,,,0.00,WUHU216HW,2013-11-02 17:46:00,
2013-11-02 12:51:00,54.5,38.1,29.26,NW,315,10.5,10.5,54,0.00,,,0.00,WUHU216HW,2013-11-02 17:51:00,
2013-11-02 12:56:00,54.5,38.1,29.26,NW,315,4.4,10.5,54,0.00,,,0.00,WUHU216HW,2013-11-02 17:56:00,
2013-11-02 13:01:00,55.2,38.7,29.26,NW,315,6.0,10.5,54,0.00,,,0.00,WUHU216HW,2013-11-02 18:01:00,
2013-11-02 13:06:00,55.0,37.6,29.25,NW,315,2.0,6.0,52,0.00,,,0.00,WUHU216HW,2013-11-02 18:06:00,
2013-11-02 13:11:00,55.0,37.6,29.26,WSW,248,0.6,5.5,52,0.00,,,0.00,WUHU216HW,2013-11-02 18:11:00,
2013-11-02 13:16:00,55.0,37.6,29.25,NNE,23,8.2,8.2,52,0.00,,,0.00,WUHU216HW,2013-11-02 18:16:00,
2013-11-02 13:21:00,55.0,38.1,29.25,NW,315,3.3,8.2,53,0.00,,,0.00,WUHU216HW,2013-11-02 18:21:00,
2013-11-02 13:26:00,55.4,37.9,29.25,NNW,338,0.0,8.2,52,0.00,,,0.00,WUHU216HW,2013-11-02 18:26:00,
2013-11-02 13:31:00,55.5,37.2,29.25,NW,315,3.1,3.3,50,0.00,,,0.00,WUHU216HW,2013-11-02 18:31:00,
2013-11-02 13:36:00,55.2,36.8,29.25,NW,315,7.6,11.6,50,0.00,,,0.00,WUHU216HW,2013-11-02 18:36:00,
2013-11-02 13:41:00,55.2,36.3,29.25,NW,315,0.0,11.6,49,0.00,,,0.00,WUHU216HW,2013-11-02 18:41:00,
2013-11-02 13:46:00,55.5,36.6,29.25,NW,315,3.5,7.6,49,0.00,,,0.00,WUHU216HW,2013-11-02 18:46:00,
2013-11-02 13:51:00,55.5,35.5,29.24,NW,315,1.1,14.0,47,0.00,,,0.00,WUHU216HW,2013-11-02 18:51:00,
2013-11-02 13:56:00,55.7,36.2,29.24,NW,315,7.6,14.0,48,0.00,,,0.00,WUHU216HW,2013-11-02 18:56:00,
2013-11-02 14:01:00,55.9,36.4,29.24,WNW,293,4.6,7.6,48,0.00,,,0.00,WUHU216HW,2013-11-02 19:01:00,
2013-11-02 14:06:00,56.1,36.6,29.24,NNW,338,6.9,6.9,48,0.00,,,0.00,WUHU216HW,2013-11-02 19:06:00,
2013-11-02 14:11:00,56.3,36.8,29.23,WNW,293,0.0,6.9,48,0.00,,,0.00,WUHU216HW,2013-11-02 19:11:00,
2013-11-02 14:16:00,56.1,35.4,29.23,NW,315,6.2,6.9,46,0.00,,,0.00,WUHU216HW,2013-11-02 19:16:00,
2013-11-02 14:21:00,55.9,35.3,29.23,NW,315,8.7,8.7,46,0.00,,,0.00,WUHU216HW,2013-11-02 19:21:00,
2013-11-02 14:26:00,56.1,36.0,29.23,NNW,338,14.7,14.7,47,0.00,,,0.00,WUHU216HW,2013-11-02 19:26:00,
2013-11-02 14:31:00,56.1,36.0,29.23,NW,315,13.1,14.7,47,0.00,,,0.00,WUHU216HW,2013-11-02 19:31:00,
2013-11-02 14:36:00,56.1,35.4,29.23,NNW,338,7.6,13.1,46,0.00,,,0.00,WUHU216HW,2013-11-02 19:36:00,
2013-11-02 14:41:00,55.9,35.3,29.23,NW,315,6.2,13.1,46,0.00,,,0.00,WUHU216HW,2013-11-02 19:41:00,
2013-11-02 14:46:00,55.9,35.7,29.23,NW,315,7.3,11.4,47,0.00,,,0.00,WUHU216HW,2013-11-02 19:46:00,
2013-11-02 14:51:00,55.9,35.3,29.23,NW,315,5.5,11.4,46,0.00,,,0.00,WUHU216HW,2013-11-02 19:51:00,
2013-11-02 14:56:00,56.1,36.0,29.23,NNW,338,8.7,8.7,47,0.00,,,0.00,WUHU216HW,2013-11-02 19:56:00,
2013-11-02 15:01:00,56.3,36.0,29.23,NNW,338,0.0,8.7,47,0.00,,,0.00,WUHU216HW,2013-11-02 20:01:00,
2013-11-02 15:06:00,56.3,36.2,29.23,West,270,0.0,6.7,47,0.00,,,0.00,WUHU216HW,2013-11-02 20:06:00,
2013-11-02 15:11:00,56.3,35.6,29.23,NW,315,8.0,8.0,46,0.00,,,0.00,WUHU216HW,2013-11-02 20:11:00,
2013-11-02 15:16:00,56.1,35.0,29.23,NNW,338,9.3,9.3,45,0.00,,,0.00,WUHU216HW,2013-11-02 20:16:00,
2013-11-02 15:21:00,55.7,34.5,29.23,WSW,248,7.8,10.7,45,0.00,,,0.00,WUHU216HW,2013-11-02 20:21:00,
2013-11-02 15:26:00,55.4,34.2,29.23,NW,315,8.7,11.6,45,0.00,,,0.00,WUHU216HW,2013-11-02 20:26:00,
2013-11-02 15:31:00,55.4,36.2,29.22,NW,315,0.0,11.6,48,0.00,,,0.00,WUHU216HW,2013-11-02 20:31:00,
2013-11-02 15:36:00,56.1,36.0,29.23,NW,315,1.7,1.7,47,0.00,,,0.00,WUHU216HW,2013-11-02 20:36:00,
2013-11-02 15:41:00,56.3,36.2,29.22,NW,315,5.5,5.5,47,0.00,,,0.00,WUHU216HW,2013-11-02 20:41:00,
2013-11-02 15:46:00,56.1,35.4,29.23,WNW,293,6.7,12.3,45,0.00,,,0.00,WUHU216HW,2013-11-02 20:46:00,
2013-11-02 15:51:00,55.7,34.5,29.23,NNW,338,8.7,12.3,45,0.00,,,0.00,WUHU216HW,2013-11-02 20:51:00,
2013-11-02 15:56:00,55.5,34.9,29.22,NW,315,0.0,8.7,46,0.00,,,0.00,WUHU216HW,2013-11-02 20:56:00,
2013-11-02 16:01:00,55.5,34.9,29.22,NW,315,8.0,8.7,46,0.00,,,0.00,WUHU216HW,2013-11-02 21:01:00,
2013-11-02 16:06:00,55.2,34.6,29.22,NNW,338,5.8,8.0,46,0.00,,,0.00,WUHU216HW,2013-11-02 21:06:00,
2013-11-02 16:11:00,55.2,35.2,29.22,NW,315,4.4,8.0,47,0.00,,,0.00,WUHU216HW,2013-11-02 21:11:00,
2013-11-02 16:16:00,54.8,34.8,29.22,NW,315,3.5,8.5,47,0.00,,,0.00,WUHU216HW,2013-11-02 21:16:00,
2013-11-02 16:21:00,54.6,33.6,29.22,NW,315,7.6,8.5,45,0.00,,,0.00,WUHU216HW,2013-11-02 21:21:00,
2013-11-02 16:26:00,54.3,33.2,29.22,NW,315,12.7,12.7,45,0.00,,,0.00,WUHU216HW,2013-11-02 21:26:00,
2013-11-02 16:31:00,54.3,33.2,29.22,WNW,293,0.0,12.7,45,0.00,,,0.00,WUHU216HW,2013-11-02 21:31:00,
2013-11-02 16:36:00,54.1,33.1,29.22,North,0,4.0,12.0,45,0.00,,,0.00,WUHU216HW,2013-11-02 21:36:00,
2013-11-02 16:41:00,53.9,33.5,29.22,NNW,338,0.0,4.6,46,0.00,,,0.00,WUHU216HW,2013-11-02 21:41:00,
2013-11-02 16:46:00,53.7,33.3,29.22,North,0,5.1,7.6,46,0.00,,,0.00,WUHU216HW,2013-11-02 21:46:00,
2013-11-02 16:51:00,53.7,33.9,29.22,NNW,338,0.0,7.6,47,0.00,,,0.00,WUHU216HW,2013-11-02 21:51:00,
2013-11-02 16:56:00,53.6,34.3,29.22,NW,315,0.0,5.3,48,0.00,,,0.00,WUHU216HW,2013-11-02 21:56:00,
2013-11-02 17:01:00,53.4,33.5,29.22,NW,315,3.8,4.9,47,0.00,,,0.00,WUHU216HW,2013-11-02 22:01:00,
2013-11-02 17:06:00,53.4,33.5,29.23,NW,315,7.8,7.8,47,0.00,,,0.00,WUHU216HW,2013-11-02 22:06:00,
2013-11-02 17:11:00,53.2,33.4,29.22,NW,315,0.0,7.8,47,0.00,,,0.00,WUHU216HW,2013-11-02 22:11:00,
2013-11-02 17:16:00,52.8,33.8,29.22,NW,315,0.0,7.8,48,0.00,,,0.00,WUHU216HW,2013-11-02 22:16:00,
2013-11-02 17:21:00,52.8,33.6,29.22,NW,315,3.8,7.3,48,0.00,,,0.00,WUHU216HW,2013-11-02 22:21:00,
2013-11-02 17:26:00,52.5,33.3,29.22,NW,315,0.0,6.0,48,0.00,,,0.00,WUHU216HW,2013-11-02 22:26:00,
2013-11-02 17:31:00,52.3,33.1,29.22,NW,315,0.0,3.8,48,0.00,,,0.00,WUHU216HW,2013-11-02 22:31:00,
2013-11-02 17:36:00,52.1,33.5,29.22,WNW,293,0.0,3.3,49,0.00,,,0.00,WUHU216HW,2013-11-02 22:36:00,
2013-11-02 17:41:00,51.8,33.2,29.22,WNW,293,0.0,0.0,49,0.00,,,0.00,WUHU216HW,2013-11-02 22:41:00,
2013-11-02 17:46:00,51.6,33.6,29.22,WNW,293,0.0,0.0,50,0.00,,,0.00,WUHU216HW,2013-11-02 22:46:00,
2013-11-02 17:51:00,51.4,33.4,29.22,WNW,293,0.0,0.0,50,0.00,,,0.00,WUHU216HW,2013-11-02 22:51:00,
2013-11-02 17:56:00,51.2,33.7,29.22,NW,315,0.0,0.0,51,0.00,,,0.00,WUHU216HW,2013-11-02 22:56:00,
2013-11-02 18:01:00,50.5,33.1,29.23,NW,315,0.0,0.0,51,0.00,,,0.00,WUHU216HW,2013-11-02 23:01:00,
2013-11-02 18:06:00,49.8,32.9,29.22,NW,315,0.0,0.0,52,0.00,,,0.00,WUHU216HW,2013-11-02 23:06:00,
2013-11-02 18:11:00,49.2,32.8,29.22,NW,315,0.0,0.0,53,0.00,,,0.00,WUHU216HW,2013-11-02 23:11:00,
2013-11-02 18:16:00,48.3,32.8,29.22,NW,315,0.0,0.0,55,0.00,,,0.00,WUHU216HW,2013-11-02 23:16:00,
2013-11-02 18:21:00,47.8,32.8,29.22,NW,315,0.0,0.0,56,0.00,,,0.00,WUHU216HW,2013-11-02 23:21:00,
2013-11-02 18:26:00,47.1,32.5,29.22,NW,315,0.0,0.0,57,0.00,,,0.00,WUHU216HW,2013-11-02 23:26:00,
2013-11-02 18:31:00,46.5,32.0,29.22,NW,315,0.0,0.0,57,0.00,,,0.00,WUHU216HW,2013-11-02 23:31:00,
2013-11-02 18:36:00,46.0,32.0,29.22,NW,315,0.0,0.0,58,0.00,,,0.00,WUHU216HW,2013-11-02 23:36:00,
2013-11-02 18:41:00,46.0,32.0,29.22,NW,315,0.0,0.0,58,0.00,,,0.00,WUHU216HW,2013-11-02 23:41:00,
2013-11-02 18:46:00,45.5,32.0,29.22,NW,315,0.0,0.0,59,0.00,,,0.00,WUHU216HW,2013-11-02 23:46:00,
2013-11-02 18:51:00,45.1,32.1,29.22,NW,315,0.0,0.0,60,0.00,,,0.00,WUHU216HW,2013-11-02 23:51:00,
2013-11-02 18:56:00,44.6,31.6,29.22,NW,315,0.0,0.0,60,0.00,,,0.00,WUHU216HW,2013-11-02 23:56:00,
2013-11-02 19:01:00,43.3,30.7,29.22,NW,315,0.0,0.0,61,0.00,,,0.00,WUHU216HW,2013-11-03 00:01:00,
2013-11-02 19:06:00,42.6,30.4,29.22,NW,315,0.0,0.0,62,0.00,,,0.00,WUHU216HW,2013-11-03 00:06:00,
2013-11-02 19:11:00,41.9,30.1,29.22,NW,315,0.0,0.0,63,0.00,,,0.00,WUHU216HW,2013-11-03 00:11:00,
2013-11-02 19:16:00,41.1,29.8,29.22,NW,315,0.0,0.0,64,0.00,,,0.00,WUHU216HW,2013-11-03 00:16:00,
2013-11-02 19:21:00,40.8,29.9,29.22,NW,315,0.0,0.0,65,0.00,,,0.00,WUHU216HW,2013-11-03 00:21:00,
2013-11-02 19:26:00,40.2,29.7,29.22,NW,315,0.0,0.0,66,0.00,,,0.00,WUHU216HW,2013-11-03 00:26:00,
2013-11-02 19:31:00,39.9,29.7,29.23,NW,315,0.0,0.0,67,0.00,,,0.00,WUHU216HW,2013-11-03 00:31:00,
2013-11-02 19:36:00,39.7,29.9,29.23,NW,315,0.0,0.0,68,0.00,,,0.00,WUHU216HW,2013-11-03 00:36:00,
2013-11-02 19:41:00,39.7,30.3,29.23,NW,315,0.0,0.0,69,0.00,,,0.00,WUHU216HW,2013-11-03 00:41:00,
2013-11-02 19:47:00,39.3,30.0,29.23,NW,315,0.0,0.0,69,0.00,,,0.00,WUHU216HW,2013-11-03 00:47:00,
2013-11-02 19:51:00,39.0,29.6,29.23,NW,315,0.0,0.0,69,0.00,,,0.00,WUHU216HW,2013-11-03 00:51:00,
2013-11-02 19:56:00,38.8,29.8,29.23,NW,315,0.0,0.0,70,0.00,,,0.00,WUHU216HW,2013-11-03 00:56:00,
2013-11-02 20:02:00,38.3,29.3,29.23,NW,315,0.0,0.0,70,0.00,,,0.00,WUHU216HW,2013-11-03 01:02:00,
2013-11-02 20:07:00,37.9,29.3,29.23,NW,315,0.0,0.0,71,0.00,,,0.00,WUHU216HW,2013-11-03 01:07:00,
2013-11-02 20:12:00,37.7,29.5,29.23,NW,315,0.0,0.0,72,0.00,,,0.00,WUHU216HW,2013-11-03 01:12:00,
2013-11-02 20:17:00,37.5,29.7,29.23,NW,315,0.0,0.0,73,0.00,,,0.00,WUHU216HW,2013-11-03 01:17:00,
2013-11-02 20:22:00,37.4,29.5,29.24,NW,315,0.0,0.0,73,0.00,,,0.00,WUHU216HW,2013-11-03 01:22:00,
2013-11-02 20:27:00,37.2,29.3,29.23,NW,315,0.0,0.0,73,0.00,,,0.00,WUHU216HW,2013-11-03 01:27:00,
2013-11-02 20:32:00,36.6,28.8,29.23,NW,315,0.0,0.0,73,0.00,,,0.00,WUHU216HW,2013-11-03 01:32:00,
2013-11-02 20:37:00,36.5,28.9,29.23,NW,315,0.0,0.0,74,0.00,,,0.00,WUHU216HW,2013-11-03 01:37:00,
2013-11-02 20:42:00,36.3,29.1,29.23,NW,315,0.0,0.0,75,0.00,,,0.00,WUHU216HW,2013-11-03 01:42:00,
2013-11-02 20:47:00,36.1,28.9,29.23,NW,315,0.0,0.0,75,0.00,,,0.00,WUHU216HW,2013-11-03 01:47:00,
2013-11-02 20:52:00,35.7,28.5,29.23,NW,315,0.0,0.0,75,0.00,,,0.00,WUHU216HW,2013-11-03 01:52:00,
2013-11-02 20:57:00,35.4,28.5,29.23,NW,315,0.0,0.0,76,0.00,,,0.00,WUHU216HW,2013-11-03 01:57:00,
2013-11-02 21:02:00,35.4,28.8,29.23,NW,315,0.0,0.0,77,0.00,,,0.00,WUHU216HW,2013-11-03 02:02:00,
2013-11-02 21:07:00,35.4,28.8,29.23,NW,315,0.0,0.0,78,0.00,,,0.00,WUHU216HW,2013-11-03 02:07:00,
2013-11-02 21:12:00,35.6,29.3,29.23,NW,315,0.0,0.0,78,0.00,,,0.00,WUHU216HW,2013-11-03 02:12:00,
2013-11-02 21:17:00,35.4,29.1,29.23,NW,315,0.0,0.0,78,0.00,,,0.00,WUHU216HW,2013-11-03 02:17:00,
2013-11-02 21:22:00,35.2,29.0,29.23,NW,315,0.0,0.0,79,0.00,,,0.00,WUHU216HW,2013-11-03 02:22:00,
2013-11-02 21:27:00,34.8,28.9,29.23,NW,315,0.0,0.0,79,0.00,,,0.00,WUHU216HW,2013-11-03 02:27:00,
2013-11-02 21:32:00,34.7,28.7,29.23,NW,315,0.0,0.0,79,0.00,,,0.00,WUHU216HW,2013-11-03 02:32:00,
2013-11-02 21:37:00,34.7,28.7,29.23,NW,315,0.0,0.0,79,0.00,,,0.00,WUHU216HW,2013-11-03 02:37:00,
2013-11-02 21:38:00,34.7,29.1,29.23,NW,315,0.0,0.0,80,0.00,,,0.00,WUHU216HW,2013-11-03 02:38:00,
2013-11-02 21:43:00,34.5,28.9,29.24,NW,315,0.0,0.0,80,0.00,,,0.00,WUHU216HW,2013-11-03 02:43:00,
2013-11-02 21:50:00,34.1,28.5,29.24,NW,315,0.0,0.0,80,0.00,,,0.00,WUHU216HW,2013-11-03 02:50:00,
2013-11-02 21:56:00,34.1,28.8,29.23,NW,315,0.0,0.0,81,0.00,,,0.00,WUHU216HW,2013-11-03 02:56:00,
2013-11-02 22:09:00,34.1,28.8,29.24,NW,315,0.0,0.0,81,0.00,,,0.00,WUHU216HW,2013-11-03 03:09:00,
2013-11-02 22:14:00,33.6,28.3,29.24,NW,315,0.0,0.0,81,0.00,,,0.00,WUHU216HW,2013-11-03 03:14:00,
2013-11-02 22:19:00,33.4,28.1,29.24,NW,315,0.0,0.0,81,0.00,,,0.00,WUHU216HW,2013-11-03 03:19:00,
2013-11-02 22:24:00,33.2,28.3,29.24,NW,315,0.0,0.0,82,0.00,,,0.00,WUHU216HW,2013-11-03 03:24:00,
2013-11-02 22:29:00,33.0,28.1,29.24,NW,315,0.0,0.0,82,0.00,,,0.00,WUHU216HW,2013-11-03 03:29:00,
2013-11-02 22:34:00,32.7,27.8,29.23,NW,315,0.0,0.0,82,0.00,,,0.00,WUHU216HW,2013-11-03 03:34:00,
2013-11-02 22:39:00,32.5,27.6,29.23,NW,315,0.0,0.0,82,0.00,,,0.00,WUHU216HW,2013-11-03 03:39:00,
2013-11-02 22:44:00,32.5,27.6,29.23,NW,315,0.0,0.0,82,0.00,,,0.00,WUHU216HW,2013-11-03 03:44:00,
2013-11-02 22:49:00,32.5,27.6,29.23,NW,315,0.0,0.0,82,0.00,,,0.00,WUHU216HW,2013-11-03 03:49:00,
2013-11-02 22:54:00,32.5,27.9,29.22,NW,315,0.0,0.0,83,0.00,,,0.00,WUHU216HW,2013-11-03 03:54:00,
2013-11-02 22:59:00,32.3,27.7,29.23,NW,315,0.0,0.0,83,0.00,,,0.00,WUHU216HW,2013-11-03 03:59:00,
2013-11-02 23:01:00,32.3,27.7,29.23,NW,315,0.0,0.0,83,0.00,,,0.00,WUHU216HW,2013-11-03 04:01:00,
2013-11-02 23:02:00,32.1,27.6,29.22,NW,315,0.0,0.0,83,0.00,,,0.00,WUHU216HW,2013-11-03 04:02:00,
2013-11-02 23:04:00,32.1,27.6,29.23,NW,315,0.0,0.0,83,0.00,,,0.00,WUHU216HW,2013-11-03 04:04:00,
2013-11-02 23:09:00,32.1,27.9,29.23,NW,315,0.0,0.0,84,0.00,,,0.00,WUHU216HW,2013-11-03 04:09:00,
2013-11-02 23:14:00,32.5,28.2,29.23,NW,315,0.0,0.0,84,0.00,,,0.00,WUHU216HW,2013-11-03 04:14:00,
2013-11-02 23:19:00,32.3,28.0,29.23,NW,315,0.0,0.0,84,0.00,,,0.00,WUHU216HW,2013-11-03 04:19:00,
2013-11-02 23:24:00,32.1,27.9,29.22,NW,315,0.0,0.0,84,0.00,,,0.00,WUHU216HW,2013-11-03 04:24:00,
2013-11-02 23:29:00,32.1,27.9,29.23,NW,315,0.0,0.0,84,0.00,,,0.00,WUHU216HW,2013-11-03 04:29:00,
2013-11-02 23:34:00,31.6,27.3,29.22,NW,315,0.0,0.0,84,0.00,,,0.00,WUHU216HW,2013-11-03 04:34:00,
2013-11-02 23:39:00,31.6,27.3,29.23,NW,315,0.0,0.0,84,0.00,,,0.00,WUHU216HW,2013-11-03 04:39:00,
2013-11-02 23:44:00,31.6,27.3,29.23,NW,315,0.0,0.0,84,0.00,,,0.00,WUHU216HW,2013-11-03 04:44:00,
2013-11-02 23:49:00,31.6,27.3,29.23,NW,315,0.0,0.0,84,0.00,,,0.00,WUHU216HW,2013-11-03 04:49:00,
2013-11-02 23:54:00,31.8,27.8,29.23,NW,315,0.0,0.0,85,0.00,,,0.00,WUHU216HW,2013-11-03 04:54:00,
2013-11-02 23:59:00,31.8,27.8,29.23,NW,315,0.0,0.0,85,0.00,,,0.00,WUHU216HW,2013-11-03 04:59:00,